• In Deutschland
  • Länderverzeichnis
  • Für 7 Tage
  • Wassertemperatur
  • Satellitenkarten
  • Wetterkarte
  • Widgets
  • user-avatar
    Anmelden

    Stündliche Wetter Görlitz

    Heute, 25 Februar, Sonntag

    Zeit Temperatur Niederschläge Wind Luftdruck Luftfeuchtigkeit
    00:00 -9°C° 0 mm 3 m/S 753 mmHg 48%
    01:00 -10°C° 0 mm 3 m/S 753 mmHg 50%
    02:00 -12°C° 0 mm 3 m/S 753 mmHg 51%
    03:00 -12°C° 0 mm 3 m/S 752 mmHg 51%
    04:00 -12°C° 0 mm 3 m/S 752 mmHg 52%
    05:00 -12°C° 0 mm 3 m/S 752 mmHg 52%
    06:00 -13°C° 0 mm 3 m/S 752 mmHg 53%
    07:00 -14°C° 0 mm 3 m/S 753 mmHg 51%
    08:00 -13°C° 0 mm 3 m/S 753 mmHg 47%
    09:00 -12°C° 0 mm 3 m/S 753 mmHg 43%
    10:00 -10°C° 0 mm 3 m/S 753 mmHg 38%
    11:00 -9°C° 0 mm 3 m/S 752 mmHg 35%
    12:00 -8°C° 0 mm 3 m/S 752 mmHg 32%
    13:00 -8°C° 0 mm 4 m/S 752 mmHg 29%
    14:00 -8°C° 0 mm 4 m/S 751 mmHg 30%
    15:00 -8°C° 0 mm 4 m/S 751 mmHg 30%
    16:00 -8°C° 0 mm 4 m/S 751 mmHg 30%
    17:00 -8°C° 0 mm 3 m/S 751 mmHg 33%
    18:00 -8°C° 0 mm 3 m/S 751 mmHg 35%
    19:00 -9°C° 0 mm 3 m/S 751 mmHg 38%
    20:00 -9°C° 0 mm 3 m/S 751 mmHg 40%
    21:00 -9°C° 0 mm 3 m/S 751 mmHg 42%
    22:00 -9°C° 0 mm 2 m/S 751 mmHg 44%
    23:00 -9°C° 0 mm 2 m/S 751 mmHg 46%

    Morgen, 26 Februar, Montag

    Zeit Temperatur Niederschläge Wind Luftdruck Luftfeuchtigkeit
    00:00 -9°C° 0 mm 2 m/S 751 mmHg 48%
    01:00 -9°C° 0 mm 2 m/S 751 mmHg 51%
    02:00 -12°C° 0 mm 3 m/S 751 mmHg 53%
    03:00 -12°C° 0 mm 3 m/S 750 mmHg 56%
    04:00 -12°C° 0 mm 3 m/S 750 mmHg 58%
    05:00 -12°C° 0 mm 3 m/S 750 mmHg 60%
    06:00 -13°C° 0 mm 3 m/S 750 mmHg 61%
    07:00 -13°C° 0 mm 3 m/S 750 mmHg 63%
    08:00 -12°C° 0 mm 3 m/S 750 mmHg 58%
    09:00 -12°C° 0 mm 4 m/S 750 mmHg 54%
    10:00 -11°C° 0 mm 4 m/S 750 mmHg 49%
    11:00 -11°C° 0 mm 4 m/S 750 mmHg 45%
    12:00 -10°C° 0 mm 4 m/S 750 mmHg 41%
    13:00 -9°C° 0 mm 4 m/S 749 mmHg 37%
    14:00 -9°C° 0 mm 4 m/S 749 mmHg 37%
    15:00 -9°C° 0 mm 4 m/S 748 mmHg 36%
    16:00 -10°C° 0 mm 5 m/S 748 mmHg 36%
    17:00 -10°C° 0 mm 4 m/S 748 mmHg 38%
    18:00 -10°C° 0 mm 4 m/S 748 mmHg 40%
    19:00 -11°C° 0 mm 4 m/S 748 mmHg 42%
    20:00 -11°C° 0 mm 4 m/S 748 mmHg 44%
    21:00 -11°C° 0 mm 4 m/S 748 mmHg 45%
    22:00 -12°C° 0 mm 3 m/S 748 mmHg 47%
    23:00 -12°C° 0 mm 3 m/S 748 mmHg 48%

    übermorgen, 27 Februar, Dienstag

    Zeit Temperatur Niederschläge Wind Luftdruck Luftfeuchtigkeit
    00:00 -12°C° 0 mm 3 m/S 747 mmHg 50%
    01:00 -12°C° 0 mm 3 m/S 747 mmHg 52%
    02:00 -13°C° 0 mm 3 m/S 747 mmHg 54%
    03:00 -13°C° 0 mm 3 m/S 747 mmHg 55%
    04:00 -13°C° 0 mm 3 m/S 746 mmHg 57%
    05:00 -13°C° 0 mm 3 m/S 746 mmHg 59%
    06:00 -14°C° 0 mm 3 m/S 746 mmHg 60%
    07:00 -14°C° 0 mm 3 m/S 746 mmHg 61%
    08:00 -13°C° 0 mm 3 m/S 746 mmHg 57%
    09:00 -12°C° 0 mm 4 m/S 746 mmHg 53%
    10:00 -12°C° 0 mm 4 m/S 746 mmHg 49%
    11:00 -11°C° 0 mm 4 m/S 746 mmHg 45%
    12:00 -10°C° 0 mm 4 m/S 746 mmHg 42%
    13:00 -10°C° 0 mm 5 m/S 745 mmHg 38%
    14:00 -10°C° 0 mm 5 m/S 745 mmHg 38%
    15:00 -10°C° 0 mm 5 m/S 745 mmHg 38%
    16:00 -10°C° 0 mm 5 m/S 745 mmHg 38%
    17:00 -11°C° 0 mm 5 m/S 746 mmHg 41%
    18:00 -11°C° 0 mm 5 m/S 746 mmHg 44%
    19:00 -12°C° 0 mm 5 m/S 746 mmHg 47%
    20:00 -12°C° 0 mm 5 m/S 746 mmHg 50%
    21:00 -12°C° 0 mm 5 m/S 747 mmHg 53%
    22:00 -13°C° 0 mm 5 m/S 747 mmHg 56%
    23:00 -13°C° 0 mm 5 m/S 747 mmHg 58%

    28 Februar, Mittwoch

    Zeit Temperatur Niederschläge Wind Luftdruck Luftfeuchtigkeit
    00:00 -12°C° 0 mm 4 m/S 747 mmHg 60%
    01:00 -12°C° 0 mm 4 m/S 747 mmHg 63%
    02:00 -12°C° 0 mm 4 m/S 747 mmHg 63%
    03:00 -14°C° 0 mm 5 m/S 747 mmHg 64%
    04:00 -14°C° 0 mm 5 m/S 747 mmHg 65%
    05:00 -14°C° 0 mm 5 m/S 748 mmHg 66%
    06:00 -14°C° 0 mm 5 m/S 748 mmHg 66%
    07:00 -14°C° 0 mm 5 m/S 748 mmHg 67%
    08:00 -14°C° 0 mm 5 m/S 749 mmHg 63%
    09:00 -13°C° 0 mm 5 m/S 749 mmHg 60%
    10:00 -13°C° 0 mm 5 m/S 749 mmHg 56%
    11:00 -12°C° 0 mm 5 m/S 749 mmHg 53%
    12:00 -12°C° 0 mm 5 m/S 749 mmHg 50%
    13:00 -11°C° 0 mm 5 m/S 749 mmHg 47%
    14:00 -11°C° 0 mm 5 m/S 749 mmHg 47%
    15:00 -11°C° 0 mm 5 m/S 749 mmHg 47%
    16:00 -11°C° 0 mm 5 m/S 749 mmHg 47%
    17:00 -10°C° 0 mm 4 m/S 749 mmHg 50%
    18:00 -11°C° 0 mm 4 m/S 749 mmHg 53%
    19:00 -11°C° 0 mm 4 m/S 749 mmHg 55%
    20:00 -12°C° 0 mm 4 m/S 749 mmHg 57%
    21:00 -12°C° 0 mm 3 m/S 749 mmHg 59%
    22:00 -12°C° 0 mm 3 m/S 749 mmHg 61%
    23:00 -12°C° 0 mm 3 m/S 749 mmHg 63%

    1 März, Donnerstag

    Zeit Temperatur Niederschläge Wind Luftdruck Luftfeuchtigkeit
    00:00 -13°C° 0 mm 3 m/S 749 mmHg 64%
    01:00 -13°C° 0 mm 3 m/S 749 mmHg 65%
    02:00 -13°C° 0 mm 3 m/S 748 mmHg 66%
    03:00 -13°C° 0 mm 3 m/S 748 mmHg 67%
    04:00 -14°C° 0 mm 3 m/S 748 mmHg 68%
    05:00 -14°C° 0 mm 3 m/S 748 mmHg 68%
    06:00 -14°C° 0 mm 3 m/S 747 mmHg 69%
    07:00 -14°C° 0 mm 3 m/S 747 mmHg 69%
    08:00 -14°C° 0 mm 4 m/S 747 mmHg 64%
    09:00 -14°C° 0 mm 4 m/S 747 mmHg 58%
    10:00 -12°C° 0 mm 4 m/S 747 mmHg 53%
    11:00 -11°C° 0 mm 4 m/S 746 mmHg 50%
    12:00 -10°C° 0 mm 4 m/S 746 mmHg 46%
    13:00 -10°C° 0 mm 5 m/S 745 mmHg 43%
    14:00 -10°C° 0 mm 5 m/S 745 mmHg 43%
    15:00 -10°C° 0 mm 5 m/S 744 mmHg 43%
    16:00 -10°C° 0 mm 5 m/S 744 mmHg 43%
    17:00 -10°C° 0 mm 5 m/S 744 mmHg 46%
    18:00 -11°C° 0 mm 5 m/S 744 mmHg 49%
    19:00 -11°C° 0 mm 4 m/S 744 mmHg 52%
    20:00 -11°C° 0 mm 4 m/S 744 mmHg 54%
    21:00 -11°C° 0 mm 4 m/S 743 mmHg 56%
    22:00 -11°C° 0 mm 4 m/S 743 mmHg 58%
    23:00 -11°C° 0 mm 4 m/S 743 mmHg 61%

    2 März, Freitag

    Zeit Temperatur Niederschläge Wind Luftdruck Luftfeuchtigkeit
    00:00 -11°C° 0 mm 4 m/S 742 mmHg 64%
    01:00 -12°C° 0 mm 4 m/S 742 mmHg 67%
    02:00 -12°C° 0 mm 4 m/S 741 mmHg 69%
    03:00 -12°C° 0 mm 4 m/S 741 mmHg 72%
    04:00 -12°C° 0 mm 4 m/S 740 mmHg 74%
    05:00 -12°C° 0 mm 4 m/S 740 mmHg 75%
    06:00 -12°C° 0 mm 4 m/S 740 mmHg 76%
    07:00 -14°C° 0 mm 4 m/S 739 mmHg 78%
    08:00 -11°C° 0 mm 4 m/S 739 mmHg 71%
    09:00 -10°C° 0 mm 4 m/S 739 mmHg 64%
    10:00 -8°C° 0 mm 4 m/S 739 mmHg 57%
    11:00 -7°C° 0 mm 4 m/S 738 mmHg 53%
    12:00 -5°C° 0 mm 4 m/S 737 mmHg 49%
    13:00 -3°C° 0 mm 4 m/S 737 mmHg 45%
    14:00 -3°C° 0 mm 4 m/S 736 mmHg 46%
    15:00 -3°C° 0 mm 4 m/S 736 mmHg 46%
    16:00 -3°C° 0 mm 4 m/S 736 mmHg 46%
    17:00 -3°C° 0 mm 4 m/S 736 mmHg 51%
    18:00 -4°C° 0 mm 4 m/S 736 mmHg 55%
    19:00 -5°C° 0 mm 3 m/S 735 mmHg 60%
    20:00 -5°C° 0 mm 3 m/S 735 mmHg 63%
    21:00 -5°C° 0 mm 3 m/S 735 mmHg 65%
    22:00 -5°C° 0 mm 3 m/S 735 mmHg 68%
    23:00 -5°C° 0 mm 3 m/S 735 mmHg 71%
    Mehr zeigen